Tracking 19484 objects as of 20-Jan-2019
HD Live streaming from Space Station
objects crossing your sky now

MOLNIYA 1-69

Track MOLNIYA 1-69 now!
MOLNIYA 1-69 is classified as:


NORAD ID: 17078
Int'l Code: 1986-089A
Perigee: 1,820.1 km
Apogee: 38,488.4 km
Inclination: 64.4 °
Period: 716.6 minutes
Semi major axis: 26525 km
RCS: 14.8739 m2 (large)
Launch date: November 15, 1986
Source: Commonwealth of Independent States (former USSR) (CIS)
Launch site: PLESETSK MISSILE AND SPACE COMPLEX (PKMTR)
aabbcc
Your satellite tracking list
Your tracking list is empty




NASA's NSSDC Master Catalog

Two Line Element Set (TLE):
1 17078U 86089A   19019.22512601 -.00001162  00000-0 -76382-1 0  9992
2 17078  64.4172 311.7179 6911963 269.8517 343.8307  2.00961707235843
Source of the keplerian elements: AFSPC